N178LA EDLW-EDDL

Flight info

Callsign N178LA
Flight time N/A
Altitude 3500
Route DOR DCT BAM DCT DUS
Aircraft C172/L-SFG/C

Departure

Time 2026-05-05 13:13
Airport Dortmund Airport (EDLW)

Arrival

Time N/A
Airport Düsseldorf Airport (EDDL)
Time Latitude Longitude Altitude Speed Heading
2026-05-05 13:00 51.51634 7.61482 428 ft 0 kts 151°
2026-05-05 13:08 51.51623 7.61483 421 ft 7 kts 205°
2026-05-05 13:08 51.51679 7.61430 424 ft 13 kts 339°
2026-05-05 13:09 51.51696 7.61364 418 ft 6 kts 222°
2026-05-05 13:09 51.51665 7.61291 420 ft 9 kts 241°
2026-05-05 13:09 51.51663 7.61285 422 ft 0 kts 240°
2026-05-05 13:09 51.51661 7.61279 423 ft 7 kts 239°
2026-05-05 13:10 51.51640 7.61218 426 ft 0 kts 229°
2026-05-05 13:10 51.51639 7.61218 426 ft 1 kts 229°
2026-05-05 13:10 51.51581 7.61025 420 ft 24 kts 252°
2026-05-05 13:11 51.51543 7.60816 423 ft 18 kts 253°
2026-05-05 13:11 51.51527 7.60677 420 ft 0 kts 283°
2026-05-05 13:12 51.51552 7.60625 412 ft 13 kts 323°
2026-05-05 13:12 51.51651 7.60713 422 ft 26 kts 60°
2026-05-05 13:12 51.51823 7.61191 420 ft 70 kts 61°
2026-05-05 13:12 51.52055 7.61918 591 ft 69 kts 64°
2026-05-05 13:13 51.52313 7.62587 731 ft 72 kts 60°
2026-05-05 13:13 51.52528 7.63357 856 ft 85 kts 84°
2026-05-05 13:13 51.52295 7.64151 1133 ft 80 kts 142°
2026-05-05 13:13 51.51796 7.64545 1336 ft 81 kts 175°
2026-05-05 13:14 51.51223 7.64579 1554 ft 82 kts 190°
2026-05-05 13:14 51.50669 7.64354 1724 ft 84 kts 213°
2026-05-05 13:14 51.50223 7.63798 1919 ft 82 kts 231°
2026-05-05 13:14 51.49854 7.63096 2103 ft 83 kts 245°
2026-05-05 13:15 51.49568 7.62246 2199 ft 96 kts 254°
2026-05-05 13:15 51.49239 7.61161 2145 ft 116 kts 252°
2026-05-05 13:15 51.48892 7.59995 2198 ft 115 kts 253°
2026-05-05 13:15 51.48553 7.58879 2311 ft 110 kts 252°
2026-05-05 13:16 51.48235 7.57820 2428 ft 107 kts 251°
2026-05-05 13:16 51.47919 7.56769 2551 ft 103 kts 251°
2026-05-05 13:16 51.47607 7.55741 2683 ft 101 kts 251°
2026-05-05 13:16 51.47295 7.54735 2814 ft 100 kts 248°
2026-05-05 13:17 51.46932 7.53793 2946 ft 98 kts 245°
2026-05-05 13:17 51.46576 7.52865 3081 ft 97 kts 245°
2026-05-05 13:17 51.46224 7.51949 3220 ft 96 kts 245°
2026-05-05 13:17 51.45890 7.51034 3355 ft 94 kts 246°
2026-05-05 13:18 51.45550 7.50110 3409 ft 100 kts 246°
2026-05-05 13:18 51.45185 7.49101 3407 ft 108 kts 246°
2026-05-05 13:18 51.44803 7.48029 3401 ft 112 kts 247°
2026-05-05 13:18 51.44416 7.46941 3397 ft 116 kts 245°
2026-05-05 13:19 51.43939 7.45886 3394 ft 117 kts 238°
2026-05-05 13:19 51.43468 7.44817 3394 ft 118 kts 240°
2026-05-05 13:19 51.42982 7.43757 3395 ft 118 kts 240°
2026-05-05 13:19 51.42572 7.42609 3382 ft 120 kts 249°
2026-05-05 13:20 51.42160 7.41440 3395 ft 121 kts 240°
2026-05-05 13:20 51.41662 7.40370 3401 ft 122 kts 237°
2026-05-05 13:20 51.41154 7.39270 3401 ft 123 kts 238°
2026-05-05 13:20 51.40653 7.38167 3401 ft 123 kts 239°
2026-05-05 13:21 51.40161 7.37049 3401 ft 123 kts 239°
2026-05-05 13:21 51.39668 7.35931 3401 ft 122 kts 239°
2026-05-05 13:21 51.39167 7.34797 3400 ft 123 kts 240°
2026-05-05 13:21 51.38682 7.33667 3398 ft 123 kts 240°
2026-05-05 13:22 51.38209 7.32551 3400 ft 122 kts 240°
2026-05-05 13:22 51.37734 7.31439 3398 ft 120 kts 240°
2026-05-05 13:22 51.37272 7.30321 3393 ft 121 kts 241°
2026-05-05 13:22 51.36811 7.29200 3399 ft 120 kts 241°
2026-05-05 13:23 51.36353 7.28088 3394 ft 119 kts 241°
2026-05-05 13:23 51.35921 7.27043 3398 ft 119 kts 241°
2026-05-05 13:23 51.35465 7.25933 3396 ft 119 kts 243°
2026-05-05 13:23 51.35030 7.24803 3393 ft 119 kts 243°
2026-05-05 13:24 51.34604 7.23667 3395 ft 119 kts 244°
2026-05-05 13:24 51.34178 7.22521 3392 ft 120 kts 244°
2026-05-05 13:24 51.33779 7.21372 3394 ft 120 kts 246°
2026-05-05 13:24 51.33384 7.20200 3397 ft 119 kts 248°
2026-05-05 13:25 51.33016 7.19010 3399 ft 119 kts 251°
2026-05-05 13:25 51.32704 7.17781 3397 ft 120 kts 253°
2026-05-05 13:25 51.32457 7.16513 3397 ft 120 kts 261°
2026-05-05 13:25 51.32266 7.15216 3394 ft 120 kts 262°
2026-05-05 13:26 51.32080 7.13921 3398 ft 119 kts 262°
2026-05-05 13:26 51.31892 7.12627 3396 ft 119 kts 262°
2026-05-05 13:26 51.31705 7.11330 3397 ft 120 kts 262°
2026-05-05 13:26 51.31516 7.10027 3399 ft 120 kts 262°
2026-05-05 13:27 51.31343 7.08737 3399 ft 120 kts 263°
2026-05-05 13:27 51.31170 7.07436 3399 ft 120 kts 263°
2026-05-05 13:27 51.30995 7.06132 3402 ft 120 kts 263°
2026-05-05 13:27 51.30821 7.04836 3402 ft 119 kts 263°
2026-05-05 13:28 51.30645 7.03542 3403 ft 119 kts 263°
2026-05-05 13:28 51.30468 7.02244 3401 ft 119 kts 263°
2026-05-05 13:28 51.30290 7.00939 3401 ft 120 kts 263°
2026-05-05 13:28 51.30112 6.99631 3402 ft 121 kts 263°
2026-05-05 13:29 51.29933 6.98326 3404 ft 120 kts 263°
2026-05-05 13:29 51.29754 6.97022 3404 ft 120 kts 263°
2026-05-05 13:29 51.29593 6.95720 3406 ft 120 kts 265°
2026-05-05 13:29 51.29443 6.94420 3406 ft 120 kts 265°
2026-05-05 13:30 51.29291 6.93102 3407 ft 119 kts 265°
2026-05-05 13:30 51.29167 6.91922 3407 ft 120 kts 266°
2026-05-05 13:30 51.29044 6.90747 3408 ft 119 kts 266°
2026-05-05 13:31 51.28911 6.89487 3408 ft 119 kts 266°
2026-05-05 13:31 51.28775 6.88183 3406 ft 119 kts 266°
2026-05-05 13:31 51.28638 6.86881 3409 ft 119 kts 266°
2026-05-05 13:31 51.28502 6.85582 3408 ft 119 kts 266°
2026-05-05 13:32 51.28368 6.84252 3282 ft 127 kts 267°
2026-05-05 13:32 51.28069 6.82888 2988 ft 134 kts 246°
2026-05-05 13:32 51.27599 6.81621 2739 ft 129 kts 245°
2026-05-05 13:32 51.27142 6.80436 2497 ft 125 kts 244°
2026-05-05 13:33 51.26679 6.79265 2245 ft 124 kts 244°
2026-05-05 13:33 51.26211 6.78108 2007 ft 124 kts 244°
2026-05-05 13:33 51.25727 6.76953 1744 ft 127 kts 246°
2026-05-05 13:33 51.25302 6.75713 1478 ft 126 kts 257°
2026-05-05 13:34 51.25176 6.74401 1148 ft 122 kts 300°
2026-05-05 13:34 51.25621 6.73367 1014 ft 110 kts 319°
2026-05-05 13:34 51.26137 6.72577 975 ft 100 kts 331°
2026-05-05 13:34 51.26760 6.72157 915 ft 97 kts
2026-05-05 13:35 51.27343 6.72519 949 ft 86 kts 17°
2026-05-05 13:35 51.27842 6.72017 808 ft 95 kts 299°
2026-05-05 13:35 51.27762 6.70979 853 ft 92 kts 261°
2026-05-05 13:35 51.27430 6.70198 936 ft 91 kts 214°
2026-05-05 13:36 51.26799 6.70018 1033 ft 90 kts 182°
2026-05-05 13:36 51.26242 6.70285 1280 ft 82 kts 151°
2026-05-05 13:36 51.25849 6.70910 1380 ft 82 kts 103°